Hourly Data Report for April 05, 2018

TORONTO CITY
ONTARIO
Current Station Operator: ECCC - MSC

43°40'00.000" N
79°24'00.000" W
112.50 m
6158355
71508
XTO

Download Data

Hourly Data (April 2018)
Hourly Data Report for April 5, 2018
TIME
LST
Temp Definition
°C
Dew Point Definition
°C
Rel Hum Definition
%
Precip. Amount Definition
mm

Wind Dir Definition
10's deg

Wind Spd Definition
km/h
Visibility Definition
km
Stn Press Definition
kPa
Hmdx Definition


Wind Chill Definition


Weather Definition


00:00 -3.1 -7.7 71 0.0 LegendMM LegendMM   100.36     LegendNANA
01:00 -2.9 -8.6 65 0.0 LegendMM LegendMM   100.37     LegendNANA
02:00 -2.8 -8.9 63 0.0 LegendMM LegendMM   100.36     LegendNANA
03:00 -2.7 -9.5 59 0.0 LegendMM LegendMM   100.38     LegendNANA
04:00 -3.2 -10.2 58 0.0 LegendMM LegendMM   100.41     LegendNANA
05:00 -3.5 -9.9 61 0.0 LegendMM LegendMM   100.45     LegendNANA
06:00 -3.9 -8.9 68 0.2 LegendMM LegendMM   100.52     LegendNANA
07:00 -3.7 -9.3 65 0.0 LegendMM LegendMM   100.56     LegendNANA
08:00 -3.1 -8.3 67 0.0 LegendMM LegendMM   100.60     LegendNANA
09:00 -1.9 -11.7 47 0.0 LegendMM LegendMM   100.64     LegendNANA
10:00 -0.9 -12.0 43 0.0 LegendMM LegendMM   100.66     LegendNANA
11:00 0.9 -12.4 36 0.0 LegendMM LegendMM   100.65     LegendNANA
12:00 2.3 -10.7 38 0.0 LegendMM LegendMM   100.62     LegendNANA
13:00 0.3 -10.6 44 0.0 LegendMM LegendMM   100.59     LegendNANA
14:00 1.0 -7.8 52 0.0 LegendMM LegendMM   100.59     LegendNANA
15:00 2.2 -11.7 35 0.0 LegendMM LegendMM   100.51     LegendNANA
16:00 1.9 -12.9 32 0.0 LegendMM LegendMM   100.46     LegendNANA
17:00 1.8 -13.4 31 0.0 LegendMM LegendMM   100.40     LegendNANA
18:00 1.0 -13.7 32 0.0 LegendMM LegendMM   100.43     LegendNANA
19:00 0.7 -11.9 38 0.0 LegendMM LegendMM   100.42     LegendNANA
20:00 -0.1 -11.4 42 0.0 LegendMM LegendMM   100.41     LegendNANA
21:00 0.8 -11.0 41 0.0 LegendMM LegendMM   100.39     LegendNANA
22:00 0.5 -10.1 45 0.0 LegendMM LegendMM   100.32     LegendNANA
23:00 0.4 -9.4 48 0.0 LegendMM LegendMM   100.26     LegendNANA

Notes on Data Quality.

Legend

  • E = Estimated
  • M = Missing
  • NA = Not Available*
  • [empty] = Indicates an unobserved value
Date modified: